sat.trackr.live / text

‹ back to catalog

M-SEL/CORTEZ

NORAD 63231 · 2025-052X

PAYLOAD ACTIVE UNKNOWN

§ Identity

Operator
Country
US
Launch date
2025-03-15
Launch site
AFWTR
Launch vehicle
Mass (kg)
RCS (m²)

External: N2YO · Heavens-Above · Gunter

§ Orbital elements

Epoch: 2026-09-22T15:43:33.947328Z

Period
94.27 min
Inclination
97.3772°
Eccentricity
0.0005449
Mean motion
15.27462907 rev/d
Perigee alt
479.7 km
Apogee alt
487.1 km
Semi-major
6,861.5 km
B*
2.2518e-4
RAAN
158.1378°
Arg perigee
145.7750°
Mean anomaly
214.3842°
Rev number
8,479

§ Raw data

M-SEL/CORTEZ1 63231U 25052X   26265.65525402  .00005980  00000+0  22518-3 0  99912 63231  97.3772 158.1378 0005449 145.7750 214.3842 15.27462907 84791

JSON: /api/v1/satellites/63231 · /tle

For live sub-satellite position, see the globe view (requires WebGL).

§ Visibility from observer

Set your observer location to see the next 7 days of passes ≥ 10°. The values pass through the URL so the page stays shareable.

No JS? Fill the form by hand. The geolocation button needs JavaScript.

§ Radio — SatNOGS DB

ModeDescriptionDownlinkUplink
DVB-S2 Mode C - DVB-S2/X - Transmitter 1 6.965 GHz
DVB-S2 Mode C - DVB-S2/X - Transmitter 1 4.920 GHz
DVB-S2 Mode L - DVB-S2/X - Transmitter 1 1.535 GHz
DVB-S2 Mode L - DVB-S2/X - Transmitter 2 1.552 GHz
DVB-S2 Mode S - DVB-S2/X - Transmitter 1 2.492 GHz
GFSK Mode U - GFSK38k4 400.500 MHz

6 transmitters · refreshed weekly from db.satnogs.org